FW8147 Weather Reports


time (UTC)temp
C
wind
direction
speed
KPH
gust
KPH
rain 1hr
cm
rain 24hr
cm
rain mn
cm
humidity
%
barometer
mb
20260906175137 38 48 1.6 4.8 0.00 0.00 0.00 38 1014.9
20260906174636 37 165 1.6 6.4 0.00 0.00 0.00 40 1015.0
20260906174131 37 103 6.4 11.3 0.00 0.00 0.00 40 1015.0
20260906173626 37 224 1.6 3.2 0.00 0.00 0.00 41 1015.2
20260906173122 37 169 1.6 4.8 0.00 0.00 0.00 41 1015.4
20260906172621 37 60 6.4 11.3 0.00 0.00 0.00 42 1015.2
20260906172117 37 110 1.6 1.6 0.00 0.00 0.00 43 1015.3
20260906171616 37 93 3.2 9.7 0.00 0.00 0.00 42 1015.5
20260906171112 37 162 4.8 6.4 0.00 0.00 0.00 42 1015.5
20260906170608 36 155 1.6 9.7 0.00 0.00 0.00 44 1015.8
20260906165558 36 154 1.6 3.2 0.00 0.00 0.00 45 1015.7
20260906165053 36 164 1.6 6.4 0.00 0.00 0.00 45 1015.8
20260906164553 36 162 1.6 4.8 0.00 0.00 0.00 47 1015.7
20260906164048 35 71 3.2 6.4 0.00 0.00 0.00 46 1015.8
20260906163544 35 161 1.6 9.7 0.00 0.00 0.00 48 1016.1
20260906163039 36 147 1.6 3.2 0.00 0.00 0.00 44 1015.7
20260906162536 35 178 3.2 4.8 0.00 0.00 0.00 45 1015.8
20260906162031 35 135 3.2 9.7 0.00 0.00 0.00 48 1016.0
20260906161526 35 83 3.2 6.4 0.00 0.00 0.00 46 1015.7
20260906161025 35 167 1.6 4.8 0.00 0.00 0.00 48 1016.2
20260906160524 35 150 0.0 3.2 0.00 0.00 0.00 48 1016.0
20260906160023 35 178 3.2 4.8 0.00 0.00 0.00 48 1016.0
20260906155521 35 69 1.6 6.4 0.00 0.00 0.00 47 1015.8
20260906155017 35 174 1.6 3.2 0.00 0.00 0.00 47 1016.0
20260906154512 35 145 1.6 3.2 0.00 0.00 0.00 48 1016.1
20260906154010 34 149 0.0 6.4 0.00 0.00 0.00 48 1016.1
20260906153509 35 111 3.2 3.2 0.00 0.00 0.00 48 1015.8
20260906153005 33 125 0.0 4.8 0.00 0.00 0.00 49 1015.8
20260906152459 35 149 3.2 4.8 0.00 0.00 0.00 49 1015.8
20260906151958 34 128 1.6 3.2 0.00 0.00 0.00 50 1016.0
20260906151453 33 134 1.6 3.2 0.00 0.00 0.00 50 1015.6
20260906150949 33 145 1.6 4.8 0.00 0.00 0.00 50 1015.6
20260906150445 33 143 1.6 3.2 0.00 0.00 0.00 51 1015.6
20260906145944 34 148 0.0 3.2 0.00 0.00 0.00 50 1015.6
20260906145443 33 153 1.6 3.2 0.00 0.00 0.00 52 1015.8
20260906144932 33 149 0.0 3.2 0.00 0.00 0.00 55 1015.8
20260906144427 32 147 0.0 1.6 0.00 0.00 0.00 56 1015.7
20260906143923 32 156 0.0 3.2 0.00 0.00 0.00 55 1015.8
20260906143418 32 142 0.0 1.6 0.00 0.00 0.00 55 1015.5
20260906142914 32 150 3.2 3.2 0.00 0.00 0.00 56 1015.5
20260906142413 31 148 0.0 1.6 0.00 0.00 0.00 56 1015.6
20260906141914 31 141 1.6 4.8 0.00 0.00 0.00 58 1015.8
20260906141408 31 153 0.0 1.6 0.00 0.00 0.00 59 1015.6
20260906140908 31 159 1.6 3.2 0.00 0.00 0.00 60 1015.7
20260906140402 31 151 1.6 3.2 0.00 0.00 0.00 58 1015.6
20260906135901 30 180 1.6 3.2 0.00 0.00 0.00 60 1015.8
20260906135400 30 129 3.2 3.2 0.00 0.00 0.00 61 1015.5
20260906134855 29 147 1.6 3.2 0.00 0.00 0.00 63 1015.6
20260906134350 29 176 3.2 4.8 0.00 0.00 0.00 63 1015.3
20260906133846 28 122 1.6 3.2 0.00 0.00 0.00 64 1015.6
20260906133342 28 161 0.0 3.2 0.00 0.00 0.00 66 1015.5
20260906132837 28 141 3.2 4.8 0.00 0.00 0.00 66 1015.6
20260906132332 28 149 3.2 6.4 0.00 0.00 0.00 66 1015.6
20260906131828 28 152 0.0 1.6 0.00 0.00 0.00 67 1015.4
20260906131323 28 150 0.0 0.0 0.00 0.00 0.00 66 1015.3
20260906130819 29 150 0.0 0.0 0.00 0.00 0.00 64 1015.3
20260906130318 28 154 0.0 0.0 0.00 0.00 0.00 66 1015.2
20260906125817 27 154 0.0 0.0 0.00 0.00 0.00 68 1015.2
20260906125309 27 155 0.0 1.6 0.00 0.00 0.00 69 1015.0
20260906124804 27 153 0.0 0.0 0.00 0.00 0.00 68 1015.2
20260906124300 26 150 0.0 0.0 0.00 0.00 0.00 71 1015.1
20260906123758 26 162 1.6 3.2 0.00 0.00 0.00 71 1015.2
20260906123254 25 147 0.0 3.2 0.00 0.00 0.00 73 1015.0
20260906122753 25 152 1.6 1.6 0.00 0.00 0.00 73 1014.8
20260906122249 25 159 1.6 3.2 0.00 0.00 0.00 73 1014.9
20260906121745 25 150 3.2 4.8 0.00 0.00 0.00 74 1014.8
20260906121241 25 152 1.6 4.8 0.00 0.00 0.00 75 1014.7
20260906120737 24 156 3.2 3.2 0.00 0.00 0.00 75 1014.6
20260906120233 23 149 3.2 3.2 0.00 0.00 0.00 78 1014.9
20260906115729 23 156 0.0 0.0 0.00 0.00 0.00 81 1014.6
20260906115223 22 154 0.0 0.0 0.00 0.00 0.00 81 1014.6
20260906114723 22 154 0.0 0.0 0.00 0.00 0.00 82 1014.5
20260906114218 23 159 0.0 0.0 0.00 0.00 0.00 81 1014.5
20260906113713 23 159 0.0 0.0 0.00 0.00 0.00 80 1014.4
20260906113212 23 159 0.0 0.0 0.00 0.00 0.00 79 1014.4
20260906112707 23 159 0.0 0.0 0.00 0.00 0.00 79 1014.4
20260906112204 23 147 0.0 0.0 0.00 0.00 0.00 79 1014.5
20260906111703 23 128 0.0 1.6 0.00 0.00 0.00 79 1014.3
20260906111157 23 147 0.0 0.0 0.00 0.00 0.00 79 1014.4
20260906110652 23 151 0.0 0.0 0.00 0.00 0.00 78 1014.4
20260906110147 23 159 0.0 0.0 0.00 0.00 0.00 78 1014.4
20260906105642 24 151 0.0 0.0 0.00 0.00 0.00 78 1014.5
20260906105138 24 142 3.2 3.2 0.00 0.00 0.00 77 1014.3
20260906104637 24 148 1.6 3.2 0.00 0.00 0.00 77 1014.3
20260906104131 24 143 1.6 3.2 0.00 0.00 0.00 77 1014.3
20260906103629 24 158 0.0 1.6 0.00 0.00 0.00 77 1014.2
20260906103125 24 160 0.0 0.0 0.00 0.00 0.00 77 1014.3
20260906102619 24 162 0.0 1.6 0.00 0.00 0.00 77 1014.2
20260906102114 24 147 0.0 0.0 0.00 0.00 0.00 77 1014.1
20260906101608 24 127 0.0 0.0 0.00 0.00 0.00 77 1014.3
20260906101103 24 154 0.0 0.0 0.00 0.00 0.00 77 1014.0
20260906100558 23 153 0.0 0.0 0.00 0.00 0.00 78 1014.0
20260906100053 24 145 0.0 0.0 0.00 0.00 0.00 78 1014.1
20260906095553 23 151 0.0 0.0 0.00 0.00 0.00 78 1014.1
20260906095048 23 154 0.0 0.0 0.00 0.00 0.00 78 1014.1
20260906094547 24 149 0.0 0.0 0.00 0.00 0.00 78 1014.1
20260906094038 23 150 0.0 0.0 0.00 0.00 0.00 78 1014.1
20260906093534 23 150 0.0 0.0 0.00 0.00 0.00 78 1014.1
20260906093034 23 153 0.0 0.0 0.00 0.00 0.00 78 1014.0
20260906092529 23 157 0.0 0.0 0.00 0.00 0.00 78 1013.9
20260906092024 23 157 0.0 0.0 0.00 0.00 0.00 78 1014.0
20260906091520 23 158 0.0 0.0 0.00 0.00 0.00 79 1014.0
20260906091016 23 159 0.0 1.6 0.00 0.00 0.00 79 1013.9
20260906090516 23 153 0.0 0.0 0.00 0.00 0.00 81 1013.9
20260906090011 23 153 0.0 0.0 0.00 0.00 0.00 81 1014.0
20260906085510 23 148 0.0 0.0 0.00 0.00 0.00 80 1014.0
20260906085009 23 150 0.0 0.0 0.00 0.00 0.00 79 1013.9
20260906084504 24 150 0.0 0.0 0.00 0.00 0.00 78 1013.9
20260906083957 24 154 0.0 0.0 0.00 0.00 0.00 77 1013.8
20260906083454 25 154 0.0 0.0 0.00 0.00 0.00 75 1013.8
20260906082952 25 154 0.0 0.0 0.00 0.00 0.00 76 1013.7
20260906082448 25 159 0.0 0.0 0.00 0.00 0.00 76 1013.9
20260906081943 25 155 0.0 0.0 0.00 0.00 0.00 75 1013.8
20260906081438 25 159 0.0 0.0 0.00 0.00 0.00 74 1013.9
20260906080934 26 151 0.0 0.0 0.00 0.00 0.00 69 1014.0
20260906080431 26 153 1.6 1.6 0.00 0.00 0.00 68 1014.0
20260906075931 26 151 1.6 3.2 0.00 0.00 0.00 68 1014.0
20260906075425 26 155 1.6 3.2 0.00 0.00 0.00 68 1013.9
20260906074920 26 149 1.6 3.2 0.00 0.00 0.00 69 1014.0
20260906074415 26 158 0.0 1.6 0.00 0.00 0.00 70 1013.9
20260906073914 25 156 0.0 1.6 0.00 0.00 0.00 71 1013.8
20260906073409 25 157 0.0 0.0 0.00 0.00 0.00 73 1013.8
20260906072905 25 164 0.0 0.0 0.00 0.00 0.00 74 1014.0
20260906072400 25 165 0.0 0.0 0.00 0.00 0.00 74 1014.0
20260906071856 25 158 0.0 0.0 0.00 0.00 0.00 75 1014.0
20260906071351 25 155 0.0 0.0 0.00 0.00 0.00 75 1014.4
20260906070847 25 154 0.0 0.0 0.00 0.00 0.00 74 1014.0
20260906070343 25 134 0.0 0.0 0.00 0.00 0.00 74 1014.2
20260906065838 25 147 0.0 0.0 0.00 0.00 0.00 73 1014.2
20260906065333 25 155 0.0 0.0 0.00 0.00 0.00 74 1014.2
20260906064828 25 155 0.0 0.0 0.00 0.00 0.00 75 1014.2
20260906064324 25 155 0.0 0.0 0.00 0.00 0.00 74 1013.9
20260906063819 25 155 0.0 1.6 0.00 0.00 0.00 75 1014.2
20260906063315 25 157 0.0 0.0 0.00 0.00 0.00 75 1014.4
20260906062810 25 140 0.0 1.6 0.00 0.00 0.00 75 1014.3
20260906062309 25 132 0.0 1.6 0.00 0.00 0.00 75 1014.2
20260906061804 25 140 0.0 0.0 0.00 0.00 0.00 75 1014.2
20260906061301 25 154 0.0 0.0 0.00 0.00 0.00 75 1014.4
20260906060755 25 161 0.0 0.0 0.00 0.00 0.00 74 1014.2
20260906060253 25 163 0.0 0.0 0.00 0.00 0.00 74 1014.6
20260906055749 25 163 0.0 0.0 0.00 0.00 0.00 72 1014.4
20260906055243 26 163 0.0 0.0 0.00 0.00 0.00 71 1014.5
20260906054739 26 163 0.0 0.0 0.00 0.00 0.00 71 1014.4
20260906054234 26 163 0.0 0.0 0.00 0.00 0.00 70 1014.4
20260906053731 26 160 0.0 0.0 0.00 0.00 0.00 70 1014.4
20260906053226 26 160 0.0 0.0 0.00 0.00 0.00 70 1014.3
20260906052721 26 160 0.0 0.0 0.00 0.00 0.00 69 1014.4
20260906052217 26 160 0.0 0.0 0.00 0.00 0.00 69 1014.1
20260906051714 26 160 0.0 0.0 0.00 0.00 0.00 67 1014.4
20260906051213 27 160 0.0 0.0 0.00 0.00 0.00 66 1014.4
20260906050709 27 160 0.0 0.0 0.00 0.00 0.00 66 1014.1
20260906050204 27 156 0.0 1.6 0.00 0.00 0.00 65 1014.2
20260906045702 28 155 0.0 1.6 0.00 0.00 0.00 63 1014.2
20260906045157 28 154 0.0 1.6 0.00 0.00 0.00 63 1014.1
20260906044653 28 148 0.0 0.0 0.00 0.00 0.00 63 1014.0
20260906044148 28 151 0.0 1.6 0.00 0.00 0.00 62 1014.2
20260906043645 28 154 0.0 1.6 0.00 0.00 0.00 62 1014.3
20260906043140 28 145 0.0 0.0 0.00 0.00 0.00 62 1014.2
20260906042639 28 128 0.0 1.6 0.00 0.00 0.00 62 1014.4
20260906042134 28 148 0.0 1.6 0.00 0.00 0.00 62 1014.2
20260906041629 28 124 0.0 4.8 0.00 0.00 0.00 61 1014.0
20260906041124 28 124 1.6 3.2 0.00 0.00 0.00 61 1014.1
20260906040620 28 148 0.0 1.6 0.00 0.00 0.00 61 1014.3
20260906040115 28 147 0.0 3.2 0.00 0.00 0.00 61 1014.1
20260906035610 28 140 1.6 1.6 0.00 0.00 0.00 61 1014.0
20260906035105 28 116 1.6 1.6 0.00 0.00 0.00 61 1014.1
20260906034600 28 158 1.6 3.2 0.00 0.00 0.00 60 1014.1
20260906034054 29 142 1.6 3.2 0.00 0.00 0.00 60 1014.0
20260906033550 29 130 1.6 3.2 0.00 0.00 0.00 60 1013.8
20260906033045 29 149 0.0 3.2 0.00 0.00 0.00 59 1014.1
20260906032542 29 155 0.0 3.2 0.00 0.00 0.00 59 1013.9
20260906032042 30 142 3.2 3.2 0.00 0.00 0.00 58 1014.2
20260906031537 30 132 0.0 4.8 0.00 0.00 0.00 58 1014.2
20260906031027 29 148 1.6 3.2 0.00 0.00 0.00 58 1014.0
20260906030526 29 138 1.6 3.2 0.00 0.00 0.00 58 1013.9
20260906030021 30 142 1.6 3.2 0.00 0.00 0.00 57 1013.9
20260906025520 30 155 1.6 3.2 0.00 0.00 0.00 56 1013.8
20260906025018 30 151 1.6 3.2 0.00 0.00 0.00 56 1013.8
20260906024513 30 154 1.6 1.6 0.00 0.00 0.00 56 1013.8
20260906024008 30 164 1.6 1.6 0.00 0.00 0.00 55 1013.6
20260906023504 30 155 0.0 1.6 0.00 0.00 0.00 54 1013.6
20260906022959 30 150 0.0 1.6 0.00 0.00 0.00 54 1013.6
20260906022454 31 150 0.0 1.6 0.00 0.00 0.00 53 1013.5
20260906021949 31 147 0.0 1.6 0.00 0.00 0.00 52 1013.2
20260906021443 31 148 1.6 1.6 0.00 0.00 0.00 52 1013.5
20260906020938 31 150 1.6 4.8 0.00 0.00 0.00 51 1013.2
20260906020433 31 93 1.6 4.8 0.00 0.00 0.00 50 1013.0
20260906015932 31 133 1.6 3.2 0.00 0.00 0.00 50 1013.1
20260906015427 31 39 3.2 6.4 0.00 0.00 0.00 50 1013.4
20260906014927 31 43 6.4 11.3 0.00 0.00 0.00 51 1013.0
20260906014426 31 146 0.0 1.6 0.00 0.00 0.00 53 1013.1
20260906013922 31 120 1.6 1.6 0.00 0.00 0.00 52 1012.9
20260906013418 31 144 0.0 1.6 0.00 0.00 0.00 51 1012.8
20260906012914 31 139 0.0 1.6 0.00 0.00 0.00 50 1012.9
20260906012408 31 139 1.6 1.6 0.00 0.00 0.00 50 1012.8
20260906011908 31 116 0.0 0.0 0.00 0.00 0.00 50 1012.7
20260906011403 32 149 0.0 1.6 0.00 0.00 0.00 49 1012.5
20260906010858 32 148 0.0 1.6 0.00 0.00 0.00 49 1012.7
20260906010354 31 143 0.0 1.6 0.00 0.00 0.00 50 1012.9
20260906005850 31 142 0.0 3.2 0.00 0.00 0.00 52 1012.7
20260906005349 32 103 1.6 1.6 0.00 0.00 0.00 51 1012.6
20260906004848 32 153 0.0 0.0 0.00 0.00 0.00 48 1012.5
20260906004347 33 154 0.0 1.6 0.00 0.00 0.00 46 1012.7
20260906003842 33 156 0.0 0.0 0.00 0.00 0.00 45 1012.4
20260906003337 33 159 0.0 0.0 0.00 0.00 0.00 44 1012.6
20260906002833 34 159 0.0 1.6 0.00 0.00 0.00 43 1012.7
20260906002332 35 156 0.0 0.0 0.00 0.00 0.00 42 1012.8
20260906001828 35 158 0.0 0.0 0.00 0.00 0.00 41 1012.6
20260906001323 35 154 0.0 1.6 0.00 0.00 0.00 40 1012.6
20260906000818 35 139 1.6 1.6 0.00 0.00 0.00 40 1012.7
20260906000313 36 161 1.6 3.2 0.00 0.00 0.00 39 1012.6
20260905235808 36 163 0.0 1.6 0.00 0.00 0.00 39 1012.8
20260905235308 36 157 0.0 4.8 0.00 0.00 0.00 40 1012.5
20260905234804 36 161 0.0 1.6 0.00 0.00 0.00 39 1012.6
20260905234259 36 168 6.4 6.4 0.00 0.00 0.00 38 1012.6
20260905233754 36 159 0.0 0.0 0.00 0.00 0.00 38 1012.4
20260905233254 36 161 0.0 1.6 0.00 0.00 0.00 39 1012.6
20260905232753 36 132 3.2 3.2 0.00 0.00 0.00 39 1012.4
20260905232249 36 148 0.0 3.2 0.00 0.00 0.00 40 1012.6
20260905231745 36 143 1.6 3.2 0.00 0.00 0.00 39 1012.6
20260905231240 37 95 1.6 4.8 0.00 0.00 0.00 38 1012.5
20260905230736 37 151 1.6 9.7 0.00 0.00 0.00 38 1012.6
20260905230233 37 168 3.2 4.8 0.00 0.00 0.00 37 1012.7
20260905225733 37 153 1.6 3.2 0.00 0.00 0.00 37 1012.3
20260905225229 37 164 0.0 1.6 0.00 0.00 0.00 36 1012.4
20260905224727 37 160 0.0 3.2 0.00 0.00 0.00 36 1012.4
20260905224223 37 147 0.0 3.2 0.00 0.00 0.00 37 1012.4
20260905223719 37 135 1.6 4.8 0.00 0.00 0.00 37 1012.5
20260905223216 37 167 1.6 4.8 0.00 0.00 0.00 37 1012.5
20260905222712 37 166 0.0 3.2 0.00 0.00 0.00 38 1012.4
20260905222210 37 169 0.0 4.8 0.00 0.00 0.00 37 1012.5
20260905221707 37 84 6.4 9.7 0.00 0.00 0.00 37 1012.6
20260905221203 37 193 6.4 6.4 0.00 0.00 0.00 38 1012.6
20260905220659 37 155 1.6 3.2 0.00 0.00 0.00 38 1012.6
20260905220155 37 167 0.0 6.4 0.00 0.00 0.00 38 1012.4
20260905215649 37 149 0.0 4.8 0.00 0.00 0.00 39 1012.5
20260905215144 37 115 3.2 6.4 0.00 0.00 0.00 37 1012.5
20260905214641 37 58 4.8 6.4 0.00 0.00 0.00 38 1012.8
20260905214140 37 200 3.2 4.8 0.00 0.00 0.00 38 1012.6
20260905213636 37 221 1.6 6.4 0.00 0.00 0.00 39 1012.6
20260905213131 37 321 8.0 11.3 0.00 0.00 0.00 38 1012.7
20260905212626 37 69 3.2 6.4 0.00 0.00 0.00 38 1012.7
20260905212121 37 41 4.8 6.4 0.00 0.00 0.00 39 1012.9
20260905211615 38 45 3.2 9.7 0.00 0.00 0.00 37 1013.0
20260905211111 38 163 1.6 3.2 0.00 0.00 0.00 37 1013.0
20260905210607 38 157 1.6 11.3 0.00 0.00 0.00 37 1013.2
20260905210101 38 171 0.0 3.2 0.00 0.00 0.00 36 1013.2
20260905205600 38 168 1.6 3.2 0.00 0.00 0.00 37 1013.5
20260905205055 37 179 1.6 12.9 0.00 0.00 0.00 39 1013.4
20260905204549 37 179 1.6 3.2 0.00 0.00 0.00 38 1013.6
20260905204045 36 164 1.6 6.4 0.00 0.00 0.00 40 1013.7
20260905203544 35 131 0.0 4.8 0.00 0.00 0.00 41 1013.7
20260905203040 36 154 3.2 6.4 0.00 0.00 0.00 41 1013.7
20260905202535 36 172 1.6 3.2 0.00 0.00 0.00 41 1014.0
20260905202030 36 111 3.2 4.8 0.00 0.00 0.00 40 1013.8
20260905201526 37 161 1.6 4.8 0.00 0.00 0.00 40 1013.8
20260905201025 37 108 6.4 9.7 0.00 0.00 0.00 38 1014.1
20260905200521 37 37 4.8 22.5 0.00 0.00 0.00 39 1014.2
20260905200020 38 141 1.6 3.2 0.00 0.00 0.00 38 1014.0
20260905195514 37 174 1.6 3.2 0.00 0.00 0.00 38 1014.0
20260905195009 37 118 3.2 9.7 0.00 0.00 0.00 38 1014.2
20260905194504 37 134 1.6 9.7 0.00 0.00 0.00 40 1014.3
20260905194004 36 97 1.6 4.8 0.00 0.00 0.00 41 1014.3
20260905193503 35 218 1.6 6.4 0.00 0.00 0.00 43 1014.4
20260905192959 36 169 1.6 6.4 0.00 0.00 0.00 42 1014.4
20260905192454 35 113 3.2 4.8 0.00 0.00 0.00 42 1014.5
20260905191951 36 148 0.0 4.8 0.00 0.00 0.00 43 1014.6
20260905191449 35 32 6.4 11.3 0.00 0.00 0.00 44 1014.7
20260905190943 36 18 4.8 6.4 0.00 0.00 0.00 42 1014.6
20260905190441 37 164 6.4 9.7 0.00 0.00 0.00 42 1014.7
20260905185940 38 51 4.8 11.3 0.00 0.00 0.00 41 1014.7
20260905185436 38 136 3.2 3.2 0.00 0.00 0.00 42 1015.0
20260905184934 37 177 1.6 4.8 0.00 0.00 0.00 40 1015.2
20260905184429 36 84 6.4 9.7 0.00 0.00 0.00 39 1015.3
20260905183928 37 276 8.0 11.3 0.00 0.00 0.00 42 1015.1
20260905183422 37 114 1.6 6.4 0.00 0.00 0.00 41 1015.1
20260905182918 36 114 1.6 4.8 0.00 0.00 0.00 42 1015.3
20260905182416 36 79 6.4 9.7 0.00 0.00 0.00 41 1015.2
20260905181912 36 147 1.6 6.4 0.00 0.00 0.00 42 1015.4
20260905181406 36 164 1.6 9.7 0.00 0.00 0.00 46 1015.6
20260905180905 37 165 1.6 3.2 0.00 0.00 0.00 43 1015.5
20260905180400 36 129 4.8 6.4 0.00 0.00 0.00 43 1015.6
20260905175855 35 17 9.7 14.5 0.00 0.00 0.00 45 1016.0
20260905175355 36 125 1.6 4.8 0.00 0.00 0.00 45 1016.0